,,PA_Meas_PMT16A,,PR_Meas_QMR101_102,,RH_Meas_QMH101,,SR_Meas_QMS101,,TA_Meas_QMH101,,GenWind,,GenWind,
time,status,PA,status,PR,status,RH,status,SR,status,TA,status,DirAvg,status,SpdAvg,
2010-07-01, 00:00:04,VALID,916.928,VALID,0,VALID,96.7335,VALID,0,VALID,19.4868,VALID,103,VALID,0.785156,
2010-07-01, 00:01:04,VALID,916.915,VALID,0,VALID,96.7411,VALID,0.107441,VALID,19.4478,VALID,103,VALID,1.03711,
2010-07-01, 00:02:04,VALID,916.886,VALID,0,VALID,96.7564,VALID,0.107441,VALID,19.4478,VALID,103,VALID,0.635156,
2010-07-01, 00:03:04,VALID,916.849,VALID,0,VALID,96.7564,VALID,0,VALID,19.4673,VALID,103,VALID,0.454688,
2010-07-01, 00:04:04,VALID,916.863,VALID,0,VALID,96.7716,VALID,0,VALID,19.4478,VALID,103,VALID,0.426172,
2010-07-01, 00:05:04,VALID,916.827,VALID,0,VALID,96.764,VALID,0.107441,VALID,19.4283,VALID,103,VALID,0.509766,
2010-07-01, 00:06:04,VALID,916.835,VALID,0,VALID,96.8021,VALID,0,VALID,19.4283,VALID,103,VALID,0.490625,
2010-07-01, 00:07:04,VALID,916.784,VALID,0,VALID,96.8098,VALID,0.107441,VALID,19.4283,VALID,103,VALID,0.271094,
2010-07-01, 00:08:04,VALID,916.762,VALID,0,VALID,96.8326,VALID,0,VALID,19.4283,VALID,103,VALID,0.461719,
2010-07-01, 00:09:04,VALID,916.758,VALID,0,VALID,96.8555,VALID,0,VALID,19.4493,VALID,103,VALID,0.00195313,
2010-07-01, 00:10:04,VALID,916.743,VALID,0,VALID,96.9089,VALID,0,VALID,19.4283,VALID,103,VALID,0.171094,
2010-07-01, 00:11:04,VALID,916.711,VALID,0,VALID,96.8784,VALID,0,VALID,19.4283,VALID,103,VALID,0.454688,
2010-07-01, 00:12:04,VALID,916.721,VALID,0,VALID,96.9012,VALID,0,VALID,19.4283,VALID,103,VALID,0.496094,
2010-07-01, 00:13:04,VALID,916.708,VALID,0,VALID,96.8936,VALID,0,VALID,19.4493,VALID,103,VALID,0.651563,
2010-07-01, 00:14:04,VALID,916.668,VALID,0,VALID,96.9012,VALID,0.107441,VALID,19.4283,VALID,103,VALID,0.862891,
2010-07-01, 00:15:04,VALID,916.683,VALID,0,VALID,96.886,VALID,0.107441,VALID,19.4298,VALID,103,VALID,0.846094,
2010-07-01, 00:16:04,VALID,916.684,VALID,0,VALID,96.9012,VALID,0,VALID,19.4283,VALID,103,VALID,0.994141,
2010-07-01, 00:17:04,VALID,916.631,VALID,0,VALID,96.8631,VALID,0.107441,VALID,19.4283,VALID,103,VALID,0.739844,
2010-07-01, 00:18:04,VALID,916.629,VALID,0,VALID,96.8936,VALID,0.107441,VALID,19.4478,VALID,103,VALID,0.375,
2010-07-01, 00:19:04,VALID,916.565,VALID,0,VALID,96.8098,VALID,0,VALID,19.4283,VALID,103,VALID,0.698438,
2010-07-01, 00:20:04,VALID,916.57,VALID,0,VALID,96.8174,VALID,0,VALID,19.4478,VALID,103,VALID,0.411719,
2010-07-01, 00:21:04,VALID,916.568,VALID,0,VALID,96.7716,VALID,0,VALID,19.4493,VALID,103,VALID,0.666016,
2010-07-01, 00:22:04,VALID,916.497,VALID,0,VALID,96.764,VALID,0.107441,VALID,19.4283,VALID,103,VALID,0.614844,
2010-07-01, 00:23:04,VALID,916.484,VALID,0,VALID,96.7793,VALID,0,VALID,19.4283,VALID,103,VALID,0.910156,
2010-07-01, 00:24:04,VALID,916.448,VALID,0,VALID,96.7488,VALID,0,VALID,19.4088,VALID,103,VALID,1.06016,
2010-07-01, 00:25:04,VALID,916.482,VALID,0,VALID,96.7564,VALID,0,VALID,19.3908,VALID,103,VALID,0.745703,
2010-07-01, 00:26:04,VALID,916.437,VALID,0,VALID,96.7716,VALID,0,VALID,19.3698,VALID,103,VALID,0.630078,
2010-07-01, 00:27:04,VALID,916.418,VALID,0,VALID,96.8403,VALID,0,VALID,19.3503,VALID,103,VALID,0.216797,
2010-07-01, 00:28:04,VALID,916.444,VALID,0,VALID,96.8403,VALID,0,VALID,19.3698,VALID,103,VALID,0,
2010-07-01, 00:29:04,VALID,916.43,VALID,0,VALID,96.9165,VALID,0,VALID,19.3698,VALID,103,VALID,0.226563,
2010-07-01, 00:30:04,VALID,916.403,VALID,0,VALID,96.8936,VALID,0,VALID,19.3503,VALID,103,VALID,0.4,
2010-07-01, 00:31:05,VALID,916.403,VALID,0,VALID,96.947,VALID,0.107441,VALID,19.3698,VALID,103,VALID,0.353906,
2010-07-01, 00:32:04,VALID,916.369,VALID,0,VALID,96.9622,VALID,0,VALID,19.3713,VALID,103,VALID,0.0761719,
2010-07-01, 00:33:05,VALID,916.362,VALID,0,VALID,96.9927,VALID,0,VALID,19.3713,VALID,103,VALID,0.289063,
2010-07-01, 00:34:05,VALID,916.312,VALID,0,VALID,97.008,VALID,0,VALID,19.3713,VALID,103,VALID,0.0425781,
2010-07-01, 00:35:05,VALID,916.304,VALID,0,VALID,97.008,VALID,0.107441,VALID,19.3308,VALID,103,VALID,0,
2010-07-01, 00:36:05,VALID,916.298,VALID,0,VALID,97.0537,VALID,0,VALID,19.3503,VALID,103,VALID,0.271094,
2010-07-01, 00:37:05,VALID,916.275,VALID,0,VALID,97.0994,VALID,0,VALID,19.3503,VALID,103,VALID,0.596875,
2010-07-01, 00:38:05,VALID,916.258,VALID,0,VALID,97.0613,VALID,0.107441,VALID,19.3503,VALID,103,VALID,0.358203,
2010-07-01, 00:39:05,VALID,916.247,VALID,0,VALID,97.0156,VALID,0,VALID,19.3113,VALID,103,VALID,0.507031,
2010-07-01, 00:40:05,VALID,916.234,VALID,0,VALID,97.008,VALID,0,VALID,19.3128,VALID,103,VALID,0.449609,
2010-07-01, 00:41:05,VALID,916.208,VALID,0,VALID,97.0156,VALID,0,VALID,19.2723,VALID,103,VALID,0.596875,
2010-07-01, 00:42:05,VALID,916.192,VALID,0,VALID,97.0385,VALID,0,VALID,19.2528,VALID,103,VALID,0.65,
2010-07-01, 00:43:05,VALID,916.167,VALID,0,VALID,97.069,VALID,0.107441,VALID,19.2334,VALID,103,VALID,0.359766,
2010-07-01, 00:44:05,VALID,916.17,VALID,0,VALID,97.0613,VALID,0.107441,VALID,19.2334,VALID,103,VALID,0.145703,
2010-07-01, 00:45:05,VALID,916.123,VALID,0,VALID,97.0766,VALID,0,VALID,19.2153,VALID,103,VALID,0.075,
2010-07-01, 00:46:05,VALID,916.146,VALID,0,VALID,97.0994,VALID,0,VALID,19.2153,VALID,103,VALID,0.26875,
2010-07-01, 00:47:05,VALID,916.135,VALID,0,VALID,97.1376,VALID,0,VALID,19.1749,VALID,103,VALID,0.309766,
2010-07-01, 00:48:05,VALID,916.112,VALID,0,VALID,97.1223,VALID,0,VALID,19.1554,VALID,103,VALID,0.602344,
2010-07-01, 00:49:05,VALID,916.13,VALID,0,VALID,97.1223,VALID,0,VALID,19.1359,VALID,103,VALID,0.395703,
2010-07-01, 00:50:05,VALID,916.133,VALID,0,VALID,97.1452,VALID,0,VALID,19.1568,VALID,103,VALID,0.898438,
2010-07-01, 00:51:05,VALID,916.13,VALID,0,VALID,97.1604,VALID,0,VALID,19.1164,VALID,103,VALID,0.536719,
2010-07-01, 00:52:05,VALID,916.155,VALID,0,VALID,97.1528,VALID,0,VALID,19.0969,VALID,103,VALID,1.14531,
2010-07-01, 00:53:05,VALID,916.15,VALID,0,VALID,97.1452,VALID,0,VALID,19.0774,VALID,103,VALID,1.11758,
2010-07-01, 00:54:05,VALID,916.164,VALID,0,VALID,97.1757,VALID,0.107441,VALID,19.0774,VALID,104,VALID,0.83125,
2010-07-01, 00:55:05,VALID,916.134,VALID,0,VALID,97.1681,VALID,0,VALID,19.0384,VALID,104,VALID,0.926172,
2010-07-01, 00:56:05,VALID,916.15,VALID,0,VALID,97.1833,VALID,0.107441,VALID,19.0384,VALID,104,VALID,1.18828,
2010-07-01, 00:57:05,VALID,916.137,VALID,0,VALID,97.1604,VALID,0,VALID,19.0579,VALID,104,VALID,0.9375,
2010-07-01, 00:58:05,VALID,916.108,VALID,0,VALID,97.1757,VALID,0,VALID,19.0579,VALID,104,VALID,1.04023,
2010-07-01, 00:59:05,VALID,916.136,VALID,0,VALID,97.1604,VALID,0.107441,VALID,19.0579,VALID,105,VALID,1.10312,
2010-07-01, 01:00:05,VALID,916.147,VALID,0,VALID,97.1604,VALID,0,VALID,19.0983,VALID,105,VALID,1.13867,
2010-07-01, 01:01:05,VALID,916.14,VALID,0,VALID,97.1681,VALID,0,VALID,19.0579,VALID,149,VALID,0.873438,
2010-07-01, 01:02:05,VALID,916.166,VALID,0,VALID,97.2062,VALID,0.107441,VALID,19.0788,VALID,120,VALID,1.20898,
2010-07-01, 01:03:05,VALID,916.157,VALID,0,VALID,97.2443,VALID,0,VALID,19.0579,VALID,120,VALID,0.994922,
2010-07-01, 01:04:05,VALID,916.172,VALID,0,VALID,97.2519,VALID,0,VALID,19.0969,VALID,120,VALID,0.598828,
2010-07-01, 01:05:05,VALID,916.16,VALID,0,VALID,97.2443,VALID,0,VALID,19.1164,VALID,120,VALID,0.963672,
2010-07-01, 01:06:05,VALID,916.193,VALID,0,VALID,97.2595,VALID,0.107441,VALID,19.1178,VALID,120,VALID,0.916797,
2010-07-01, 01:07:05,VALID,916.203,VALID,0,VALID,97.2672,VALID,0,VALID,19.1178,VALID,120,VALID,1.14648,
2010-07-01, 01:08:05,VALID,916.177,VALID,0,VALID,97.2748,VALID,0,VALID,19.1178,VALID,120,VALID,0.954687,
2010-07-01, 01:09:05,VALID,916.147,VALID,0,VALID,97.29,VALID,0.107441,VALID,19.1164,VALID,120,VALID,0.745313,
2010-07-01, 01:10:05,VALID,916.194,VALID,0,VALID,97.29,VALID,0,VALID,19.1164,VALID,120,VALID,1.03516,
2010-07-01, 01:11:05,VALID,916.165,VALID,0,VALID,97.3205,VALID,0,VALID,19.1373,VALID,120,VALID,1.02109,
2010-07-01, 01:12:05,VALID,916.145,VALID,0,VALID,97.3205,VALID,0,VALID,19.1568,VALID,120,VALID,0.575,
2010-07-01, 01:13:05,VALID,916.136,VALID,0,VALID,97.3205,VALID,0,VALID,19.1554,VALID,120,VALID,0.656641,
2010-07-01, 01:14:05,VALID,916.129,VALID,0,VALID,97.3358,VALID,0,VALID,19.1568,VALID,120,VALID,1.15977,
2010-07-01, 01:15:05,VALID,916.078,VALID,0,VALID,97.3586,VALID,0,VALID,19.1763,VALID,120,VALID,0.351172,
2010-07-01, 01:16:05,VALID,916.062,VALID,0,VALID,97.3434,VALID,0,VALID,19.1763,VALID,120,VALID,0.726563,
2010-07-01, 01:17:05,VALID,916.047,VALID,0,VALID,97.3739,VALID,0,VALID,19.1554,VALID,120,VALID,0.293359,
2010-07-01, 01:18:05,VALID,916.031,VALID,0,VALID,97.3663,VALID,0,VALID,19.1749,VALID,120,VALID,0,
2010-07-01, 01:19:05,VALID,916.018,VALID,0,VALID,97.3663,VALID,0,VALID,19.1944,VALID,120,VALID,0.294141,
2010-07-01, 01:20:05,VALID,916.009,VALID,0,VALID,97.3815,VALID,0.107441,VALID,19.1958,VALID,120,VALID,0.244531,
2010-07-01, 01:21:05,VALID,916.056,VALID,0,VALID,97.3739,VALID,0,VALID,19.2153,VALID,120,VALID,0.644531,
2010-07-01, 01:22:05,VALID,916.048,VALID,0,VALID,97.3815,VALID,0,VALID,19.1749,VALID,120,VALID,0.573438,
2010-07-01, 01:23:05,VALID,916.033,VALID,0,VALID,97.3891,VALID,0,VALID,19.1568,VALID,120,VALID,0.791016,
2010-07-01, 01:24:05,VALID,916.045,VALID,0,VALID,97.3434,VALID,0,VALID,19.1554,VALID,120,VALID,0.591797,
2010-07-01, 01:25:05,VALID,915.982,VALID,0,VALID,97.3663,VALID,0,VALID,19.1359,VALID,120,VALID,0.482031,
2010-07-01, 01:26:05,VALID,915.957,VALID,0,VALID,97.3663,VALID,0,VALID,19.1568,VALID,120,VALID,0.401953,
2010-07-01, 01:27:05,VALID,915.91,VALID,0,VALID,97.3739,VALID,0,VALID,19.1763,VALID,120,VALID,0.248828,
2010-07-01, 01:28:05,VALID,915.913,VALID,0,VALID,97.3586,VALID,0,VALID,19.1568,VALID,120,VALID,0.348828,
2010-07-01, 01:29:05,VALID,915.879,VALID,0,VALID,97.3815,VALID,0,VALID,19.1359,VALID,120,VALID,0.429297,
2010-07-01, 01:30:05,VALID,915.895,VALID,0,VALID,97.3891,VALID,0,VALID,19.1568,VALID,120,VALID,0.483203,
2010-07-01, 01:31:05,VALID,915.853,VALID,0,VALID,97.3891,VALID,0,VALID,19.1763,VALID,120,VALID,0.439063,
2010-07-01, 01:32:05,VALID,915.841,VALID,0,VALID,97.3663,VALID,0,VALID,19.1944,VALID,120,VALID,0.217187,
2010-07-01, 01:33:05,VALID,915.815,VALID,0,VALID,97.3891,VALID,0,VALID,19.2348,VALID,120,VALID,0,
2010-07-01, 01:34:05,VALID,915.81,VALID,0,VALID,97.3891,VALID,0,VALID,19.2543,VALID,120,VALID,0,
2010-07-01, 01:35:05,VALID,915.81,VALID,0,VALID,97.3891,VALID,0,VALID,19.2334,VALID,120,VALID,0.258594,
2010-07-01, 01:36:05,VALID,915.818,VALID,0,VALID,97.4044,VALID,0,VALID,19.2139,VALID,120,VALID,0.395703,
2010-07-01, 01:37:05,VALID,915.802,VALID,0,VALID,97.3891,VALID,0,VALID,19.2153,VALID,120,VALID,0.629297,
2010-07-01, 01:38:05,VALID,915.789,VALID,0,VALID,97.3815,VALID,0,VALID,19.2153,VALID,120,VALID,0.932813,
2010-07-01, 01:39:05,VALID,915.759,VALID,0,VALID,97.3815,VALID,0,VALID,19.1554,VALID,120,VALID,1.07187,
2010-07-01, 01:40:05,VALID,915.75,VALID,0,VALID,97.351,VALID,0,VALID,19.1373,VALID,120,VALID,0.928906,
2010-07-01, 01:41:05,VALID,915.703,VALID,0,VALID,97.3586,VALID,0,VALID,19.0969,VALID,120,VALID,0.890625,
2010-07-01, 01:42:05,VALID,915.692,VALID,0,VALID,97.3815,VALID,0,VALID,19.0969,VALID,125,VALID,1.20039,
2010-07-01, 01:43:05,VALID,915.661,VALID,0,VALID,97.3739,VALID,0,VALID,19.1178,VALID,135,VALID,0.871875,
2010-07-01, 01:44:05,VALID,915.63,VALID,0,VALID,97.351,VALID,0,VALID,19.1178,VALID,141,VALID,0.900391,
2010-07-01, 01:45:05,VALID,915.607,VALID,0,VALID,97.351,VALID,0,VALID,19.1373,VALID,141,VALID,0.957031,
2010-07-01, 01:46:05,VALID,915.596,VALID,0,VALID,97.3663,VALID,0,VALID,19.1568,VALID,141,VALID,0.547656,
2010-07-01, 01:47:05,VALID,915.585,VALID,0,VALID,97.3586,VALID,0,VALID,19.1164,VALID,141,VALID,1.16953,
2010-07-01, 01:48:05,VALID,915.602,VALID,0,VALID,97.3586,VALID,0,VALID,19.1568,VALID,141,VALID,0.730078,
2010-07-01, 01:49:05,VALID,915.592,VALID,0,VALID,97.351,VALID,0,VALID,19.1763,VALID,141,VALID,0.963672,
2010-07-01, 01:50:05,VALID,915.574,VALID,0,VALID,97.351,VALID,0,VALID,19.1359,VALID,141,VALID,1.16211,
2010-07-01, 01:51:05,VALID,915.59,VALID,0,VALID,97.3586,VALID,0,VALID,19.1568,VALID,141,VALID,0.803516,
2010-07-01, 01:52:05,VALID,915.562,VALID,0,VALID,97.3586,VALID,0.107441,VALID,19.1568,VALID,141,VALID,1.15156,
2010-07-01, 01:53:05,VALID,915.585,VALID,0,VALID,97.351,VALID,0,VALID,19.1164,VALID,141,VALID,0.694141,
2010-07-01, 01:54:05,VALID,915.565,VALID,0,VALID,97.3586,VALID,0.107441,VALID,19.1373,VALID,141,VALID,0.834766,
2010-07-01, 01:55:05,VALID,915.578,VALID,0,VALID,97.3434,VALID,0,VALID,19.1178,VALID,141,VALID,0.863672,
2010-07-01, 01:56:05,VALID,915.542,VALID,0,VALID,97.3434,VALID,0,VALID,19.1178,VALID,141,VALID,0.819141,
2010-07-01, 01:57:05,VALID,915.557,VALID,0,VALID,97.3281,VALID,0,VALID,19.1178,VALID,142,VALID,0.600391,
2010-07-01, 01:58:05,VALID,915.531,VALID,0,VALID,97.3281,VALID,0,VALID,19.1164,VALID,142,VALID,0.617188,
2010-07-01, 01:59:05,VALID,915.586,VALID,0,VALID,97.351,VALID,0,VALID,19.1373,VALID,142,VALID,0.720703,
2010-07-01, 02:00:05,VALID,915.56,VALID,0,VALID,97.3586,VALID,0,VALID,19.1178,VALID,142,VALID,0.9375,
2010-07-01, 02:01:05,VALID,915.583,VALID,0,VALID,97.3586,VALID,0,VALID,19.1178,VALID,142,VALID,0.761719,
2010-07-01, 02:02:05,VALID,915.577,VALID,0,VALID,97.351,VALID,0.107441,VALID,19.1178,VALID,142,VALID,1.04883,
2010-07-01, 02:03:05,VALID,915.578,VALID,0,VALID,97.3663,VALID,0,VALID,19.0969,VALID,143,VALID,0.798047,
2010-07-01, 02:04:05,VALID,915.572,VALID,0,VALID,97.351,VALID,0,VALID,19.0969,VALID,143,VALID,1.21328,
2010-07-01, 02:05:05,VALID,915.585,VALID,0,VALID,97.3586,VALID,0,VALID,19.0983,VALID,143,VALID,0.901563,
2010-07-01, 02:06:05,VALID,915.557,VALID,0,VALID,97.3663,VALID,0,VALID,19.0774,VALID,143,VALID,0.65,
2010-07-01, 02:07:05,VALID,915.55,VALID,0,VALID,97.3815,VALID,0.107441,VALID,19.0774,VALID,143,VALID,0.789453,
2010-07-01, 02:08:05,VALID,915.547,VALID,0,VALID,97.351,VALID,0,VALID,19.0969,VALID,143,VALID,1.18906,
2010-07-01, 02:09:05,VALID,915.566,VALID,0,VALID,97.3358,VALID,0.107441,VALID,19.0983,VALID,143,VALID,0.885938,
2010-07-01, 02:10:05,VALID,915.53,VALID,0,VALID,97.3739,VALID,0,VALID,19.1178,VALID,148,VALID,1.08281,
2010-07-01, 02:11:05,VALID,915.512,VALID,0,VALID,97.3586,VALID,0.107441,VALID,19.1164,VALID,185,VALID,0.751562,
2010-07-01, 02:12:05,VALID,915.521,VALID,0,VALID,97.351,VALID,0,VALID,19.0969,VALID,143,VALID,1.31953,
2010-07-01, 02:13:05,VALID,915.489,VALID,0,VALID,97.3739,VALID,0,VALID,19.0969,VALID,146,VALID,0.809766,
2010-07-01, 02:14:05,VALID,915.501,VALID,0,VALID,97.3586,VALID,0,VALID,19.0579,VALID,146,VALID,1.22578,
2010-07-01, 02:15:05,VALID,915.485,VALID,0,VALID,97.3663,VALID,0.107441,VALID,19.0579,VALID,146,VALID,0.9,
2010-07-01, 02:16:05,VALID,915.479,VALID,0,VALID,97.3663,VALID,0,VALID,19.0593,VALID,146,VALID,1.11758,
2010-07-01, 02:17:05,VALID,915.492,VALID,0,VALID,97.3815,VALID,0,VALID,19.0579,VALID,146,VALID,0.686328,
2010-07-01, 02:18:05,VALID,915.469,VALID,0,VALID,97.3739,VALID,0,VALID,19.0384,VALID,146,VALID,0.686719,
2010-07-01, 02:19:05,VALID,915.454,VALID,0,VALID,97.3891,VALID,0.107441,VALID,19.0384,VALID,146,VALID,0.702344,
2010-07-01, 02:20:05,VALID,915.465,VALID,0,VALID,97.3891,VALID,0,VALID,19.0593,VALID,146,VALID,0.939844,
2010-07-01, 02:21:05,VALID,915.464,VALID,0,VALID,97.3815,VALID,0,VALID,19.0593,VALID,146,VALID,0.735937,
2010-07-01, 02:22:05,VALID,915.482,VALID,0,VALID,97.3968,VALID,0,VALID,19.0593,VALID,146,VALID,0.739844,
2010-07-01, 02:23:05,VALID,915.481,VALID,0,VALID,97.3891,VALID,0.107441,VALID,19.0579,VALID,146,VALID,0.8,
2010-07-01, 02:24:05,VALID,915.468,VALID,0,VALID,97.3739,VALID,0,VALID,19.0398,VALID,146,VALID,1.34297,
2010-07-01, 02:25:05,VALID,915.438,VALID,0,VALID,97.3663,VALID,0,VALID,19.0384,VALID,146,VALID,1.27852,
2010-07-01, 02:26:05,VALID,915.435,VALID,0,VALID,97.3663,VALID,0,VALID,19.0593,VALID,146,VALID,0.8375,
2010-07-01, 02:27:05,VALID,915.442,VALID,0,VALID,97.351,VALID,0,VALID,19.0398,VALID,146,VALID,1.01758,
2010-07-01, 02:28:05,VALID,915.466,VALID,0,VALID,97.3663,VALID,0,VALID,19.0398,VALID,146,VALID,0.803906,
2010-07-01, 02:29:05,VALID,915.465,VALID,0,VALID,97.351,VALID,0,VALID,19.0593,VALID,146,VALID,1.38672,
2010-07-01, 02:30:05,VALID,915.429,VALID,0,VALID,97.3663,VALID,0,VALID,19.0398,VALID,146,VALID,1.18906,
2010-07-01, 02:31:05,VALID,915.457,VALID,0,VALID,97.3663,VALID,0,VALID,19.0398,VALID,137,VALID,1.03672,
2010-07-01, 02:32:05,VALID,915.428,VALID,0,VALID,97.3891,VALID,0,VALID,19.0384,VALID,142,VALID,1.21172,
2010-07-01, 02:33:05,VALID,915.411,VALID,0,VALID,97.3586,VALID,0,VALID,19.0384,VALID,134,VALID,1.16016,
2010-07-01, 02:34:05,VALID,915.428,VALID,0,VALID,97.3586,VALID,0,VALID,19.0189,VALID,128,VALID,1.71016,
2010-07-01, 02:35:05,VALID,915.413,VALID,0,VALID,97.3815,VALID,0,VALID,19.0398,VALID,129,VALID,1.37383,
2010-07-01, 02:36:05,VALID,915.439,VALID,0,VALID,97.3891,VALID,0,VALID,19.0203,VALID,125,VALID,1.46484,
2010-07-01, 02:37:05,VALID,915.414,VALID,0,VALID,97.3739,VALID,0,VALID,19.0398,VALID,121,VALID,1.10547,
2010-07-01, 02:38:05,VALID,915.432,VALID,0,VALID,97.3815,VALID,0,VALID,19.0189,VALID,121,VALID,1.04805,
2010-07-01, 02:39:05,VALID,915.438,VALID,0,VALID,97.3586,VALID,0,VALID,19.0203,VALID,88,VALID,1.02461,
2010-07-01, 02:40:05,VALID,915.456,VALID,0,VALID,97.3739,VALID,0,VALID,19.0008,VALID,88,VALID,0.797656,
2010-07-01, 02:41:05,VALID,915.446,VALID,0,VALID,97.3663,VALID,0,VALID,19.0203,VALID,88,VALID,1.01992,
2010-07-01, 02:42:05,VALID,915.475,VALID,0,VALID,97.351,VALID,0,VALID,18.9994,VALID,89,VALID,0.869141,
2010-07-01, 02:43:05,VALID,915.428,VALID,0,VALID,97.3739,VALID,0.107441,VALID,18.9994,VALID,89,VALID,1.08828,
2010-07-01, 02:44:05,VALID,915.393,VALID,0,VALID,97.3815,VALID,0,VALID,19.0008,VALID,90,VALID,0.975,
2010-07-01, 02:45:05,VALID,915.401,VALID,0,VALID,97.3739,VALID,0,VALID,18.9994,VALID,138,VALID,1.01133,
2010-07-01, 02:46:05,VALID,915.377,VALID,0,VALID,97.3739,VALID,0.107441,VALID,18.9994,VALID,142,VALID,0.780469,
2010-07-01, 02:47:05,VALID,915.362,VALID,0,VALID,97.3434,VALID,0,VALID,19.0203,VALID,122,VALID,0.754297,
2010-07-01, 02:48:05,VALID,915.35,VALID,0,VALID,97.3358,VALID,0,VALID,19.0203,VALID,122,VALID,0.966406,
2010-07-01, 02:49:05,VALID,915.365,VALID,0,VALID,97.3281,VALID,0.107441,VALID,19.0189,VALID,122,VALID,0.794531,
2010-07-01, 02:50:05,VALID,915.373,VALID,0,VALID,97.3053,VALID,0,VALID,19.0189,VALID,122,VALID,0.948438,
2010-07-01, 02:51:05,VALID,915.383,VALID,0,VALID,97.2748,VALID,0.107441,VALID,19.0189,VALID,122,VALID,0.936719,
2010-07-01, 02:52:05,VALID,915.387,VALID,0,VALID,97.2367,VALID,0,VALID,18.9994,VALID,122,VALID,0.993359,
2010-07-01, 02:53:05,VALID,915.421,VALID,0,VALID,97.2062,VALID,0.107441,VALID,19.0593,VALID,122,VALID,0.878125,
2010-07-01, 02:54:05,VALID,915.414,VALID,0,VALID,97.1376,VALID,0,VALID,19.0398,VALID,121,VALID,1.41914,
2010-07-01, 02:55:05,VALID,915.413,VALID,0,VALID,97.0994,VALID,0,VALID,19.0593,VALID,110,VALID,0.998047,
2010-07-01, 02:56:05,VALID,915.444,VALID,0,VALID,97.0613,VALID,0,VALID,19.0788,VALID,121,VALID,0.942969,
2010-07-01, 02:57:05,VALID,915.448,VALID,0,VALID,97.008,VALID,0,VALID,19.0579,VALID,137,VALID,1.05313,
2010-07-01, 02:58:05,VALID,915.49,VALID,0,VALID,96.9546,VALID,0,VALID,19.0788,VALID,137,VALID,0.957812,
2010-07-01, 02:59:05,VALID,915.489,VALID,0,VALID,96.9317,VALID,0,VALID,19.0788,VALID,137,VALID,1.00273,
2010-07-01, 03:00:05,VALID,915.513,VALID,0,VALID,96.9012,VALID,0,VALID,19.0788,VALID,137,VALID,0.772656,
2010-07-01, 03:01:05,VALID,915.531,VALID,0,VALID,96.8707,VALID,0,VALID,19.0593,VALID,137,VALID,0.880859,
2010-07-01, 03:02:05,VALID,915.538,VALID,0,VALID,96.8326,VALID,0,VALID,19.0203,VALID,137,VALID,0.923437,
2010-07-01, 03:03:05,VALID,915.528,VALID,0,VALID,96.8555,VALID,0,VALID,19.0203,VALID,137,VALID,0.586719,
2010-07-01, 03:04:05,VALID,915.531,VALID,0,VALID,96.8631,VALID,0.107441,VALID,18.9994,VALID,137,VALID,0.70625,
2010-07-01, 03:05:05,VALID,915.514,VALID,0,VALID,96.9165,VALID,0,VALID,19.0008,VALID,137,VALID,0.423047,
2010-07-01, 03:06:05,VALID,915.504,VALID,0,VALID,96.9546,VALID,0,VALID,18.9799,VALID,137,VALID,0.512109,
2010-07-01, 03:07:05,VALID,915.512,VALID,0,VALID,96.9546,VALID,0,VALID,19.0203,VALID,137,VALID,0.213281,
2010-07-01, 03:08:05,VALID,915.515,VALID,0,VALID,96.9927,VALID,0,VALID,19.0203,VALID,137,VALID,0,
2010-07-01, 03:09:05,VALID,915.491,VALID,0,VALID,97.0156,VALID,0,VALID,19.0189,VALID,137,VALID,0,
2010-07-01, 03:10:05,VALID,915.501,VALID,0,VALID,97.0461,VALID,0,VALID,19.0398,VALID,137,VALID,0,
2010-07-01, 03:11:05,VALID,915.475,VALID,0,VALID,97.0385,VALID,0,VALID,19.0384,VALID,137,VALID,0.409766,
2010-07-01, 03:12:05,VALID,915.468,VALID,0,VALID,97.0918,VALID,0,VALID,19.0579,VALID,137,VALID,0.263672,
2010-07-01, 03:13:05,VALID,915.471,VALID,0,VALID,97.0994,VALID,0.107441,VALID,19.0983,VALID,138,VALID,0,
2010-07-01, 03:14:05,VALID,915.466,VALID,0,VALID,97.0766,VALID,0,VALID,19.0983,VALID,137,VALID,0,
2010-07-01, 03:15:05,VALID,915.496,VALID,0,VALID,97.0918,VALID,0,VALID,19.0983,VALID,137,VALID,0.679688,
2010-07-01, 03:16:05,VALID,915.47,VALID,0,VALID,97.0232,VALID,0,VALID,19.0788,VALID,137,VALID,0.446484,
2010-07-01, 03:17:05,VALID,915.473,VALID,0,VALID,96.9927,VALID,0,VALID,19.0384,VALID,137,VALID,0.465625,
2010-07-01, 03:18:04,VALID,915.478,VALID,0,VALID,96.947,VALID,0,VALID,19.0384,VALID,137,VALID,0.638672,
2010-07-01, 03:19:04,VALID,915.495,VALID,0,VALID,96.947,VALID,0,VALID,19.0398,VALID,137,VALID,0.967578,
2010-07-01, 03:20:04,VALID,915.489,VALID,0,VALID,96.9394,VALID,0,VALID,19.0189,VALID,137,VALID,0.923047,
2010-07-01, 03:21:04,VALID,915.476,VALID,0,VALID,96.9317,VALID,0,VALID,19.0384,VALID,137,VALID,0.971094,
2010-07-01, 03:22:04,VALID,915.476,VALID,0,VALID,96.9089,VALID,0,VALID,19.0398,VALID,136,VALID,0.964844,
2010-07-01, 03:23:04,VALID,915.456,VALID,0,VALID,96.9012,VALID,0,VALID,19.0398,VALID,136,VALID,0.838281,
2010-07-01, 03:24:04,VALID,915.454,VALID,0,VALID,96.9089,VALID,0,VALID,18.9799,VALID,136,VALID,1.10312,
2010-07-01, 03:25:04,VALID,915.429,VALID,0,VALID,96.886,VALID,0,VALID,19.0008,VALID,118,VALID,0.982422,
2010-07-01, 03:26:04,VALID,915.436,VALID,0,VALID,96.9012,VALID,0,VALID,18.9814,VALID,118,VALID,1.27617,
2010-07-01, 03:27:04,VALID,915.421,VALID,0,VALID,96.8784,VALID,0,VALID,18.9604,VALID,117,VALID,1.09102,
2010-07-01, 03:28:04,VALID,915.428,VALID,0,VALID,96.9241,VALID,0,VALID,18.9409,VALID,117,VALID,0.719922,
2010-07-01, 03:29:04,VALID,915.408,VALID,0,VALID,96.9089,VALID,0,VALID,18.9619,VALID,117,VALID,0.841016,
2010-07-01, 03:30:04,VALID,915.44,VALID,0,VALID,96.9012,VALID,0,VALID,18.9409,VALID,117,VALID,0.758203,
2010-07-01, 03:31:04,VALID,915.454,VALID,0,VALID,96.9089,VALID,0,VALID,18.9619,VALID,117,VALID,1.04531,
2010-07-01, 03:32:04,VALID,915.442,VALID,0,VALID,96.9241,VALID,0,VALID,18.9619,VALID,117,VALID,1.26406,
2010-07-01, 03:33:04,VALID,915.419,VALID,0,VALID,96.947,VALID,0,VALID,18.9619,VALID,117,VALID,1.15352,
2010-07-01, 03:34:04,VALID,915.452,VALID,0,VALID,96.9241,VALID,0,VALID,18.9604,VALID,117,VALID,1.00664,
2010-07-01, 03:35:04,VALID,915.468,VALID,0,VALID,96.9165,VALID,0,VALID,18.9619,VALID,117,VALID,0.678906,
2010-07-01, 03:36:04,VALID,915.467,VALID,0,VALID,96.9241,VALID,0,VALID,18.9814,VALID,117,VALID,0.830859,
2010-07-01, 03:37:04,VALID,915.466,VALID,0,VALID,96.9317,VALID,0.107441,VALID,18.9604,VALID,117,VALID,1.28633,
2010-07-01, 03:38:04,VALID,915.459,VALID,0,VALID,96.9622,VALID,0,VALID,18.9604,VALID,116,VALID,1.35352,
2010-07-01, 03:39:04,VALID,915.49,VALID,0,VALID,96.9698,VALID,0,VALID,18.9814,VALID,115,VALID,0.995703,
2010-07-01, 03:40:04,VALID,915.503,VALID,0,VALID,96.9775,VALID,0,VALID,19.0008,VALID,114,VALID,1.09141,
2010-07-01, 03:41:04,VALID,915.489,VALID,0,VALID,97.0003,VALID,0,VALID,19.0008,VALID,114,VALID,1.1125,
2010-07-01, 03:42:04,VALID,915.485,VALID,0,VALID,97.0003,VALID,0,VALID,19.0008,VALID,114,VALID,1.03281,
2010-07-01, 03:43:04,VALID,915.506,VALID,0,VALID,97.0232,VALID,0,VALID,19.0008,VALID,114,VALID,1.19727,